Weather History for KEUL - August, 2013

Change the Weather History Date:

Thursday, August 29, 2013

  Actual Average (KBOI) Record (KBOI)
Temperature  
Mean Temperature 80 °F 71 °F  
Max Temperature 93 °F 86 °F 98 °F (1998)
Min Temperature 68 °F 57 °F 37 °F (1980)
Degree Days  
Heating Degree Days 0 1  
Month to date heating degree days 4  
Since 1 June heating degree days 76  
Since 1 July heating degree days 12  
Cooling Degree Days 16 7  
Month to date cooling degree days 293  
Year to date cooling degree days 818  
Since 1 June cooling degree days 774  
Growing Degree Days 30 (Base 50)    
Moisture  
Dew Point 49 °F    
Average Humidity 34    
Maximum Humidity 49    
Minimum Humidity 20    
Precipitation  
Precipitation 0.00 in 0.01 in 0.46 in (1896)
Month to date precipitation 0.22  
Year to date precipitation 7.48  
Snow  
Snow 0.00 in 0.00 in 0.00 in (2006)
Month to date snowfall 0.0  
Since 1 July snowfall 0.0  
Snow Depth -    
Sea Level Pressure  
Sea Level Pressure 29.94 in    
Wind  
Wind Speed 8 mph (SE)    
Max Wind Speed 13 mph    
Max Gust Speed -    
Visibility 10 miles    
Events      
T = Trace of Precipitation, MM = Missing Value Source: NWS Daily Summary

Daily Weather History Graph

Daily Weather History Graph

Search for Another Location

Airport or City:

Trip Planner

Search our weather history database for the weather conditions in past years. The results will help you decide how hot, cold, wet, or windy it might be!

Date:

Astronomy

Aug. 29, 2013 Rise Set
Actual Time 7:07 AM MDT 8:26 PM MDT
Civil Twilight 6:37 AM MDT 8:56 PM MDT
Nautical Twilight 6:01 AM MDT 9:31 PM MDT
Astronomical Twilight 5:23 AM MDT 10:09 PM MDT
Moon 12:56 AM MDT (8/29) 4:04 PM MDT (8/29)
Length of Visible Light 14h 18m
Length of Day
13h 19m
Last Quarter, 37% of the Moon is Illuminated
Aug 29
Last Quarter
Sep 5
New
Sep 12
First Quarter
Sep 19
Full
Sep 26
Last Quarter

Hourly Weather History & Observations

Time (MDT) Temp. Heat Index Dew Point Humidity Pressure Visibility Wind Dir Wind Speed Gust Speed Precip Events Conditions
12:15 AM 78.8 °F - 50.0 °F 36% 29.88 in 10.0 mi SE 9.2 mph - N/A   Scattered Clouds
12:35 AM 78.8 °F - 50.0 °F 36% 29.89 in 10.0 mi SE 8.1 mph - N/A   Partly Cloudy
12:55 AM 73.4 °F - 50.0 °F 44% 29.89 in 10.0 mi ESE 9.2 mph - N/A   Clear
1:15 AM 75.2 °F - 48.2 °F 38% 29.89 in 10.0 mi ESE 12.7 mph - N/A   Clear
1:35 AM 78.8 °F - 50.0 °F 36% 29.89 in 10.0 mi SE 10.4 mph - N/A   Clear
1:55 AM 78.8 °F - 50.0 °F 36% 29.89 in 10.0 mi SSE 11.5 mph - N/A   Clear
2:15 AM 78.8 °F - 50.0 °F 36% 29.89 in 10.0 mi SSE 12.7 mph - N/A   Clear
2:35 AM 78.8 °F - 48.2 °F 34% 29.89 in 10.0 mi SSE 9.2 mph - N/A   Clear
2:55 AM 75.2 °F - 48.2 °F 38% 29.89 in 10.0 mi SE 8.1 mph - N/A   Clear
3:15 AM 75.2 °F - 48.2 °F 38% 29.89 in 10.0 mi SE 10.4 mph - N/A   Clear
3:35 AM 73.4 °F - 48.2 °F 41% 29.90 in 10.0 mi SE 9.2 mph - N/A   Clear
3:55 AM 73.4 °F - 48.2 °F 41% 29.90 in 10.0 mi SE 9.2 mph - N/A   Clear
4:15 AM 71.6 °F - 48.2 °F 43% 29.90 in 10.0 mi SE 10.4 mph - N/A   Clear
4:35 AM 71.6 °F - 48.2 °F 43% 29.91 in 10.0 mi East 4.6 mph - N/A   Clear
4:55 AM 69.8 °F - 48.2 °F 46% 29.91 in 10.0 mi SE 6.9 mph - N/A   Clear
5:15 AM 71.6 °F - 48.2 °F 43% 29.91 in 10.0 mi SE 6.9 mph - N/A   Clear
5:35 AM 71.6 °F - 48.2 °F 43% 29.92 in 10.0 mi SE 8.1 mph - N/A   Clear
5:55 AM 69.8 °F - 48.2 °F 46% 29.92 in 10.0 mi SE 6.9 mph - N/A   Clear
6:15 AM 71.6 °F - 48.2 °F 43% 29.93 in 10.0 mi South 4.6 mph - N/A   Clear
6:35 AM 71.6 °F - 48.2 °F 43% 29.93 in 10.0 mi SE 4.6 mph - N/A   Clear
6:55 AM 69.8 °F - 48.2 °F 46% 29.94 in 10.0 mi Calm Calm - N/A   Clear
7:15 AM 69.8 °F - 48.2 °F 46% 29.95 in 10.0 mi South 5.8 mph - N/A   Clear
7:35 AM 68.0 °F - 48.2 °F 49% 29.96 in 10.0 mi SSE 6.9 mph - N/A   Clear
7:55 AM 69.8 °F - 48.2 °F 46% 29.96 in 10.0 mi West 8.1 mph - N/A   Clear
8:15 AM 71.6 °F - 48.2 °F 43% 29.97 in 10.0 mi South 6.9 mph - N/A   Clear
8:35 AM 73.4 °F - 48.2 °F 41% 29.98 in 10.0 mi South 9.2 mph - N/A   Clear
8:55 AM 75.2 °F - 50.0 °F 41% 29.98 in 10.0 mi South 10.4 mph - N/A   Clear
9:15 AM 77.0 °F - 50.0 °F 39% 29.99 in 10.0 mi South 9.2 mph - N/A   Clear
9:35 AM 77.0 °F - 51.8 °F 41% 29.99 in 10.0 mi South 6.9 mph - N/A   Clear
9:55 AM 78.8 °F - 51.8 °F 39% 29.99 in 10.0 mi South 8.1 mph - N/A   Clear
10:15 AM 82.4 °F - 51.8 °F 35% 29.99 in 10.0 mi South 10.4 mph - N/A   Clear
10:35 AM 82.4 °F - 51.8 °F 35% 30.00 in 10.0 mi South 11.5 mph - N/A   Clear
10:55 AM 84.2 °F - 51.8 °F 33% 30.00 in 10.0 mi South 10.4 mph - N/A   Clear
11:15 AM 82.4 °F - 51.8 °F 35% 30.00 in 10.0 mi South 8.1 mph - N/A   Clear
11:35 AM 84.2 °F 82.8 °F 53.6 °F 35% 30.00 in 10.0 mi South 6.9 mph - N/A   Clear
11:55 AM 84.2 °F 82.8 °F 53.6 °F 35% 29.99 in 10.0 mi SSE 5.8 mph - N/A   Clear
12:15 PM 87.8 °F 85.7 °F 53.6 °F 31% 29.99 in 10.0 mi SSE 6.9 mph - N/A   Clear
12:35 PM 87.8 °F - 51.8 °F 29% 29.99 in 10.0 mi East 4.6 mph - N/A   Clear
12:55 PM 89.6 °F - 51.8 °F 27% 29.98 in 10.0 mi ESE 5.8 mph - N/A   Clear
1:15 PM 91.4 °F - 51.8 °F 26% 29.98 in 10.0 mi ESE 5.8 mph - N/A   Clear
1:35 PM 91.4 °F - 51.8 °F 26% 29.97 in 10.0 mi East 3.5 mph - N/A   Clear
1:55 PM 91.4 °F - 50.0 °F 24% 29.97 in 10.0 mi ENE 6.9 mph - N/A   Clear
2:15 PM 93.2 °F - 50.0 °F 23% 29.97 in 10.0 mi ESE 5.8 mph - N/A   Clear
2:35 PM 93.2 °F - 48.2 °F 21% 29.97 in 10.0 mi East 5.8 mph - N/A   Clear
2:55 PM 93.2 °F - 48.2 °F 21% 29.96 in 10.0 mi East 6.9 mph - N/A   Clear
3:35 PM 93.2 °F - 48.2 °F 21% 29.94 in 10.0 mi East 8.1 mph - N/A   Clear
3:55 PM 93.2 °F - 48.2 °F 21% 29.94 in 10.0 mi East 8.1 mph - N/A   Clear
4:15 PM 91.4 °F - 48.2 °F 23% 29.94 in 10.0 mi ESE 6.9 mph - N/A   Clear
4:35 PM 93.2 °F - 46.4 °F 20% 29.93 in 10.0 mi ESE 4.6 mph - N/A   Clear
4:55 PM 93.2 °F - 50.0 °F 23% 29.93 in 10.0 mi East 8.1 mph - N/A   Clear
5:15 PM 91.4 °F - 50.0 °F 24% 29.93 in 10.0 mi ESE 8.1 mph - N/A   Clear
5:35 PM 91.4 °F - 51.8 °F 26% 29.93 in 10.0 mi East 4.6 mph - N/A   Clear
5:55 PM 91.4 °F - 50.0 °F 24% 29.92 in 5.0 mi NE 8.1 mph - N/A   Clear
6:15 PM 93.2 °F - 48.2 °F 21% 29.92 in 10.0 mi NE 6.9 mph - N/A   Clear
6:35 PM 93.2 °F - 48.2 °F 21% 29.92 in 10.0 mi North 6.9 mph - N/A   Clear
6:55 PM 93.2 °F - 48.2 °F 21% 29.92 in 10.0 mi NNE 4.6 mph - N/A   Clear
7:15 PM 91.4 °F - 50.0 °F 24% 29.92 in 10.0 mi North 6.9 mph - N/A   Clear
7:35 PM 89.6 °F - 50.0 °F 26% 29.92 in 10.0 mi NNW 6.9 mph - N/A   Clear
7:55 PM 87.8 °F - 51.8 °F 29% 29.92 in 10.0 mi North 5.8 mph - N/A   Clear
8:15 PM 84.2 °F - 50.0 °F 30% 29.92 in 10.0 mi North 5.8 mph - N/A   Clear
8:35 PM 82.4 °F - 50.0 °F 32% 29.93 in 10.0 mi NE 5.8 mph - N/A   Clear
8:55 PM 80.6 °F - 48.2 °F 32% 29.93 in 10.0 mi North 4.6 mph - N/A   Clear
9:15 PM 78.8 °F - 48.2 °F 34% 29.93 in 10.0 mi NE 5.8 mph - N/A   Clear
9:35 PM 77.0 °F - 48.2 °F 36% 29.94 in 10.0 mi East 4.6 mph - N/A   Clear
9:55 PM 75.2 °F - 50.0 °F 41% 29.94 in 10.0 mi Calm Calm - N/A   Clear
10:15 PM 75.2 °F - 48.2 °F 38% 29.95 in 10.0 mi NW 6.9 mph - N/A   Clear
10:35 PM 73.4 °F - 48.2 °F 41% 29.95 in 10.0 mi Calm Calm - N/A   Clear
10:55 PM 71.6 °F - 48.2 °F 43% 29.95 in 10.0 mi Calm Calm - N/A   Clear
11:15 PM 71.6 °F - 48.2 °F 43% 29.96 in 10.0 mi West 4.6 mph - N/A   Clear
11:35 PM 73.4 °F - 48.2 °F 41% 29.97 in 10.0 mi West 4.6 mph - N/A   Clear
11:55 PM 71.6 °F - 48.2 °F 43% 29.97 in 10.0 mi West 3.5 mph - N/A   Clear